Alpena, MI

11:07 AM EDT on August 30, 2016 (GMT -0400)
APRSWXNET | | Change Station

Elev 593 ft 45.05 °N, 83.45 °W | Updated 19 minutes ago

Clear
Clear
80 °F
Feels Like 84 °F
N
3
Wind Variable Wind from WNW
Gusts 8.0 mph

Today
High -- | Low -- °F
--% Chance of Precip.
Yesterday
High -- | Low -- °F
Precip. -- in
Pressure 30.08 in
Visibility 10.0 miles
Clouds Clear
Heat Index 84 °F
Dew Point 72 °F
Humidity 76%
Rainfall in
Snow Depth Not available.
6:54 AM 8:13 PM
Waning Crescent, 3% visible
METAR KAPN 301454Z AUTO 22005KT 10SM CLR 27/19 A3008 RMK AO2 SLP185 T02720194 58008
Pressure 30.08 in
Visibility 10.0 miles
Clouds Clear
Heat Index 84 °F
Dew Point 72 °F
Humidity 76%
Rainfall in
Snow Depth Not available.
6:54 AM 8:13 PM
Waning Crescent, 3% visible
METAR KAPN 301454Z AUTO 22005KT 10SM CLR 27/19 A3008 RMK AO2 SLP185 T02720194 58008

10-Day Weather Forecast

Almanac

Astronomy

Aug. 30, 2016 Rise Set
Actual Time
Civil Twilight
Nautical Twilight
Astronomical Twilight
Moon
Length of Visible Light
Length of Day
Tomorrow will be .
, % of the Moon is Illuminated

Today's Extremes

State Highs State Lows

Community

WunderPhotos

Upload Photos

1,935,853 photos uploaded!

WunderBlog® & News

Nearby

Air Quality

  Air Quality AQ Index Pollutant
Not available.

Snow Depth

Station Depth Elevation

Earthquake Activity

City Distance Mag. Time & Date
Minimum magnitude displayed is 2.5.

Coastal Water Temperatures

Place Temperature

Stations

Nearby Weather Stations

Station Location Temp. Windchill Dew Point Humidity Wind Precip. Elev Updated Type
                   

Watches & Warnings

There are currently no watches in effect.